Weather History for Sharm El Sheikh, Egypt

Change the Weather History Date:

Sunday, October 28, 2012

  Actual Average Record
Temperature  
Mean Temperature 82 °F -  
Max Temperature 91 °F - - ()
Min Temperature 73 °F - - ()
Cooling Degree Days 17    
Growing Degree Days 32 (Base 50)    
Moisture  
Dew Point 53 °F    
Average Humidity 39    
Maximum Humidity 61    
Minimum Humidity 23    
Precipitation  
Precipitation 0.00 in - - ()
Sea Level Pressure  
Sea Level Pressure 29.92 in    
Wind  
Wind Speed 6 mph ()    
Max Wind Speed 16 mph    
Max Gust Speed -    
T = Trace of Precipitation, MM = Missing Value Source: Averaged Metar Reports

Daily Weather History Graph

Daily Weather History Graph

Search for Another Location

Airport:

Trip Planner

Search our weather history database for the weather conditions in past years. The results will help you decide how hot, cold, wet, or windy it might be!

Date:

Astronomy

Oct. 28, 2012 Rise Set
Actual Time 5:50 AM EET 5:00 PM EET
Civil Twilight 5:26 AM EET 5:25 PM EET
Nautical Twilight 4:59 AM EET 5:52 PM EET
Astronomical Twilight 4:31 AM EET 6:20 PM EET
Moon 4:05 PM EET (10/28) 4:28 AM EET (10/28)
Length of Visible Light 11h 58m
Length of Day
11h 10m
Waxing Gibbous, 98% of the Moon is Illuminated
Oct 28
Waxing Gibbous
Oct 29
Full
Nov 7
Last Quarter
Nov 14
New
Nov 20
First Quarter

Hourly Weather History & Observations

Time (EET) Temp. Heat Index Dew Point Humidity Pressure Visibility Wind Dir Wind Speed Gust Speed Precip Events Conditions
12:00 AM 73.4 °F - 50.0 °F 44% 29.89 in - NNW 2.3 mph - N/A   Clear
1:00 AM 73.4 °F - 44.6 °F 36% 29.89 in - North 2.3 mph - N/A   Clear
2:00 AM 75.2 °F - 48.2 °F 38% 29.89 in - North 5.8 mph - N/A   Clear
3:00 AM 75.2 °F - 55.4 °F 50% 29.89 in - NNW 6.9 mph - N/A   Clear
4:00 AM 73.4 °F - 57.2 °F 57% 29.89 in - North 5.8 mph - N/A   Clear
5:00 AM 73.4 °F - 59.0 °F 61% 29.92 in - North 9.2 mph - N/A   Clear
6:00 AM 73.4 °F - 59.0 °F 61% 29.92 in - North 6.9 mph - N/A   Clear
7:00 AM 77.0 °F - 59.0 °F 54% 29.95 in - North 6.9 mph - N/A   Clear
8:00 AM 80.6 °F 81.1 °F 59.0 °F 48% 29.98 in - North 13.8 mph - N/A   Clear
9:00 AM 84.2 °F 83.8 °F 59.0 °F 42% 29.98 in - North 16.1 mph - N/A   Clear
10:00 AM 86.0 °F 85.4 °F 59.0 °F 40% 29.98 in - NNE 15.0 mph - N/A   Clear
11:00 AM 87.8 °F 87.1 °F 59.0 °F 38% 29.95 in - NNE 12.7 mph - N/A   Clear
12:00 PM 89.6 °F 88.1 °F 57.2 °F 33% 29.92 in - NNE 11.5 mph - N/A   Clear
1:00 PM 91.4 °F 89.1 °F 53.6 °F 28% 29.92 in - NNE 10.4 mph - N/A   Clear
2:00 PM 89.6 °F - 51.8 °F 27% 29.89 in - NNE 8.1 mph - N/A   Clear
3:00 PM 89.6 °F 87.3 °F 53.6 °F 29% 29.89 in - NNE 8.1 mph - N/A   Clear
4:00 PM 87.8 °F 86.1 °F 55.4 °F 33% 29.89 in - NNE 3.5 mph - N/A   Clear
5:00 PM 84.2 °F - 50.0 °F 30% 29.89 in - NNE 6.9 mph - N/A   Clear
6:00 PM 80.6 °F 80.5 °F 55.4 °F 42% 29.89 in - NNE 4.6 mph - N/A   Clear
7:00 PM 78.8 °F - 46.4 °F 32% 29.92 in - Variable 3.5 mph - N/A   Clear
8:00 PM 82.4 °F - 41.0 °F 23% 29.92 in - NNW 5.8 mph - N/A   Clear
9:00 PM 78.8 °F - 41.0 °F 26% 29.92 in - NE 2.3 mph - N/A   Clear
10:00 PM 75.2 °F - 44.6 °F 34% 29.92 in - Variable 2.3 mph - N/A   Clear
11:00 PM 78.8 °F - 42.8 °F 28% 29.92 in - NNW 8.1 mph - N/A   Clear